User: anonymous   Login
Location: Unspecified
(0.0000°N, 0.0000°E)
Time: 20:15:01
(UTC+00:00)
Language:

STARLINK-2507 - Orbit

View from above orbital plane
View from above orbital plane
View from above satellite
View from above satellite

Ground track
Ground track

The orbit is defined by the following mean orbital elements,

1 48316U          26145.25174961 +.00000000 +00000-0 +13198-4 0 00004
2 48316  53.1616 102.8274 0001223  95.5295 264.5846 15.31700279    03
Epoch (UTC): 25 May 2026 06:02:31
Eccentricity: 0.0001223
inclination: 53.1616°
perigee height: 470 km
apogee height: 472 km
right ascension of ascending node: 102.8274°
argument of perigee: 95.5295°
revolutions per day: 15.31700279
mean anomaly at epoch: 264.5846°

The dashed part of the orbit path shows where the satellite is in the earth's shadow,  

DLR